Location: Lane
(33.5226°N, 79.8788°W)
Time: 03:10:00
(UTC+00:00)

Explorer 7 - Pass Details

Date: 12 October 2022
Orbit: 481 x 665 km, 50.3° (Epoch: 01 December)

Event Time Altitude Azimuth Distance (km) Brightness Sun altitude
Rises 20:00:38 0° 300° (WNW) 2,954 10.8 31.6°
Reaches altitude 10° 20:03:17 10° 288° (WNW) 2,016 10.3 31.2°
Maximum altitude 20:07:10 27° 231° (SW) 1,188 11.8 30.5°
Drops below altitude 10° 20:10:53 10° 174° (S) 1,915 10.0 29.9°
Sets 20:13:21 0° 161° (SSE) 2,776 10.6 29.5°
